K0FJ-1 Weather Reports


Display with metric or nautical units.
time (UTC)temp
F
wind
direction
speed
MPH
gust
MPH
rain 1hr
in
rain 24hr
in
rain mn
in
humidity
%
barometer
mb
20260506100005 38 0 0.0 0.0 0.03 0.39 0.12 95 1017.9
20260506095503 38 0 0.0 0.0 0.03 0.39 0.12 95 1017.8
20260506095003 38 0 0.0 0.0 0.02 0.38 0.11 95 1017.7
20260506094503 38 0 0.0 0.0 0.02 0.38 0.11 95 1017.7
20260506094003 38 0 0.0 0.0 0.02 0.38 0.11 95 1017.7
20260506093503 38 0 0.0 0.0 0.02 0.38 0.11 95 1017.6
20260506093003 38 0 0.0 0.0 0.01 0.38 0.10 95 1017.6
20260506092503 38 0 0.0 0.0 0.01 0.38 0.10 95 1017.6
20260506092003 38 0 0.0 0.0 0.01 0.38 0.10 95 1017.5
20260506091503 38 0 0.0 0.0 0.01 0.38 0.10 95 1017.4
20260506091005 38 0 0.0 0.0 0.00 0.37 0.09 95 1017.4
20260506090503 38 0 0.0 0.0 0.01 0.37 0.09 95 1017.2
20260506090003 38 0 0.0 0.0 0.01 0.37 0.09 95 1017.3
20260506085503 38 0 0.0 0.0 0.01 0.37 0.09 95 1017.3
20260506085003 38 0 0.0 0.0 0.01 0.37 0.09 95 1017.3
20260506084503 38 0 0.0 0.0 0.01 0.37 0.09 95 1017.2
20260506084003 38 0 0.0 0.0 0.01 0.37 0.09 95 1017.3
20260506083505 38 0 0.0 0.0 0.01 0.37 0.09 95 1017.2
20260506083004 38 0 0.0 0.0 0.01 0.37 0.09 95 1017.2
20260506082503 38 0 0.0 0.0 0.01 0.37 0.09 95 1017.3
20260506082005 38 0 0.0 0.0 0.01 0.37 0.09 95 1017.3
20260506081503 38 0 0.0 0.0 0.02 0.37 0.09 95 1017.3
20260506081003 38 0 0.0 0.0 0.02 0.37 0.09 95 1017.3
20260506080503 38 0 0.0 0.0 0.01 0.36 0.08 95 1017.4
20260506073503 38 348 0.0 2.0 0.02 0.36 0.08 94 1017.5
20260506073005 38 350 0.0 2.0 0.02 0.36 0.08 94 1017.5
20260506072503 38 355 0.0 1.0 0.02 0.36 0.08 94 1017.5
20260506072003 38 355 0.0 1.0 0.03 0.36 0.08 94 1017.5
20260506071503 38 343 0.0 1.0 0.02 0.35 0.07 94 1017.5
20260506071003 38 340 0.0 2.0 0.02 0.35 0.07 94 1017.5
20260506070503 38 338 0.0 5.0 0.02 0.35 0.07 94 1017.5
20260506062503 38 344 0.0 2.0 0.04 0.34 0.06 94 1017.6
20260506062003 38 344 0.0 2.0 0.04 0.33 0.05 94 1017.6
20260506061503 38 344 0.0 1.0 0.04 0.33 0.05 94 1017.6
20260506061003 38 344 0.0 1.0 0.04 0.33 0.05 94 1017.5
20260506060503 38 344 0.0 1.0 0.04 0.33 0.05 94 1017.5
20260506051003 39 0 0.0 0.0 0.04 0.29 0.01 94 1017.0
20260506050503 39 0 0.0 0.0 0.05 0.29 0.01 94 1017.0
20260506045003 39 0 0.0 0.0 0.04 0.27 0.27 94 1016.9
20260506044503 39 344 0.0 2.0 0.04 0.27 0.27 94 1017.0
20260506044003 39 344 0.0 2.0 0.04 0.27 0.27 94 1017.1
20260506043503 39 0 0.0 0.0 0.03 0.26 0.26 94 1017.2
20260506043003 39 0 0.0 0.0 0.04 0.26 0.26 94 1017.1
20260506042503 39 0 0.0 0.0 0.05 0.26 0.26 94 1017.0
20260506042005 39 347 0.0 2.0 0.06 0.26 0.26 94 1016.9
20260506041505 39 16 0.0 2.0 0.06 0.25 0.25 93 1017.1
20260506041003 39 107 0.0 2.0 0.07 0.25 0.25 93 1016.9
20260506040503 40 0 0.0 0.0 0.06 0.24 0.24 93 1016.8
20260506040003 40 110 0.0 2.0 0.06 0.24 0.24 93 1016.6
20260506035503 40 110 0.0 2.0 0.07 0.24 0.24 93 1016.5
20260506035003 40 119 0.0 1.0 0.06 0.23 0.23 93 1016.7
20260506034503 40 119 0.0 1.0 0.06 0.23 0.23 93 1016.8
20260506034003 40 50 0.0 3.0 0.07 0.23 0.23 93 1016.8
20260506033504 40 67 1.0 3.0 0.07 0.23 0.23 93 1016.8
20260506033004 41 85 0.0 2.0 0.07 0.22 0.22 92 1016.7
20260506032503 41 138 0.0 2.0 0.06 0.21 0.21 93 1016.7
20260506032003 41 25 0.0 3.0 0.06 0.20 0.20 93 1016.7
20260506031505 42 33 0.0 3.0 0.05 0.19 0.19 93 1016.5
20260506031003 42 19 1.0 3.0 0.04 0.18 0.18 93 1016.3
20260506030503 42 2 1.0 4.0 0.04 0.18 0.18 93 1016.1
20260506030004 42 354 0.0 4.0 0.04 0.18 0.18 93 1016.0
20260506025503 42 348 1.0 4.0 0.04 0.17 0.17 93 1015.9
20260506025005 42 342 2.0 4.0 0.04 0.17 0.17 93 1015.7
20260506024505 42 333 2.0 4.0 0.05 0.17 0.17 93 1015.7
20260506024003 42 328 1.0 4.0 0.04 0.16 0.16 93 1015.7
20260506023503 42 333 1.0 3.0 0.04 0.16 0.16 93 1015.7
20260506023003 42 335 0.0 3.0 0.03 0.15 0.15 93 1015.6
20260506022505 42 0 0.0 0.0 0.03 0.15 0.15 93 1015.6
20260506022003 42 0 0.0 0.0 0.03 0.14 0.14 93 1015.6
20260506021503 42 0 0.0 0.0 0.03 0.14 0.14 93 1015.6
20260506021004 42 0 0.0 0.0 0.03 0.14 0.14 92 1015.4
20260506020503 42 0 0.0 0.0 0.03 0.14 0.14 92 1015.2
20260506020003 42 0 0.0 0.0 0.03 0.14 0.14 92 1015.3
20260506015503 42 0 0.0 0.0 0.03 0.13 0.13 92 1015.3
20260506015003 42 0 0.0 0.0 0.03 0.13 0.13 92 1014.9
20260506014503 42 0 0.0 0.0 0.02 0.12 0.12 92 1014.9
20260506014003 42 0 0.0 0.0 0.02 0.12 0.12 92 1014.9
20260506013503 42 0 0.0 0.0 0.03 0.12 0.12 91 1014.7
20260506013003 42 0 0.0 0.0 0.03 0.12 0.12 91 1014.7
20260506012503 42 0 0.0 0.0 0.03 0.12 0.12 91 1014.6
20260506012005 42 0 0.0 0.0 0.02 0.11 0.11 91 1014.6
20260506011504 42 0 0.0 0.0 0.02 0.11 0.11 90 1014.6
20260506011003 43 0 0.0 0.0 0.02 0.11 0.11 90 1014.5
20260506010503 43 0 0.0 0.0 0.02 0.11 0.11 90 1014.5
20260506010004 43 0 0.0 0.0 0.02 0.11 0.11 90 1014.5
20260506005503 43 0 0.0 0.0 0.01 0.10 0.10 89 1014.5
20260506005003 43 0 0.0 0.0 0.01 0.10 0.10 90 1014.4
20260506004504 43 0 0.0 0.0 0.02 0.10 0.10 89 1014.4
20260506004003 43 178 0.0 2.0 0.02 0.10 0.10 89 1014.4
20260506003503 43 178 0.0 2.0 0.01 0.09 0.09 89 1014.4
20260506003003 43 0 0.0 0.0 0.01 0.09 0.09 89 1014.4
20260506002503 43 0 0.0 0.0 0.01 0.09 0.09 89 1014.3
20260506002003 43 0 0.0 0.0 0.01 0.09 0.09 89 1014.2
20260506001503 43 150 0.0 1.0 0.01 0.09 0.09 88 1014.3
20260506001003 44 150 0.0 3.0 0.01 0.09 0.09 88 1014.3
20260506000503 44 150 0.0 3.0 0.01 0.09 0.09 87 1014.3
20260506000003 44 172 0.0 3.0 0.01 0.09 0.09 88 1014.2
20260505235505 44 171 0.0 3.0 0.01 0.09 0.09 87 1014.2
20260505235003 44 146 0.0 1.0 0.01 0.09 0.09 87 1014.2
20260505234503 44 0 0.0 0.0 0.00 0.08 0.08 87 1014.3
20260505234005 44 0 0.0 0.0 0.00 0.08 0.08 87 1014.2
20260505233503 44 0 0.0 0.0 0.00 0.08 0.08 86 1014.2
20260505233003 44 0 0.0 0.0 0.00 0.08 0.08 86 1014.2
20260505232503 44 0 0.0 0.0 0.00 0.08 0.08 85 1014.2
20260505232004 44 0 0.0 0.0 0.00 0.08 0.08 85 1014.2
20260505231503 44 0 0.0 0.0 0.00 0.08 0.08 84 1014.1
20260505231005 45 0 0.0 0.0 0.00 0.08 0.08 85 1014.0
20260505230503 45 0 0.0 0.0 0.00 0.08 0.08 85 1014.0
20260505230003 45 0 0.0 0.0 0.01 0.08 0.08 84 1014.2
20260505225504 45 0 0.0 0.0 0.01 0.08 0.08 84 1014.2
20260505225003 45 0 0.0 0.0 0.01 0.08 0.08 83 1014.1
20260505224503 45 0 0.0 0.0 0.02 0.08 0.08 83 1014.1
20260505224003 45 0 0.0 0.0 0.02 0.08 0.08 84 1014.1
20260505223503 45 0 0.0 0.0 0.02 0.08 0.08 84 1014.0
20260505223003 45 0 0.0 0.0 0.02 0.08 0.08 84 1014.0
20260505222503 45 0 0.0 0.0 0.02 0.08 0.08 84 1014.2
20260505222003 46 0 0.0 0.0 0.02 0.08 0.08 85 1014.2
20260505221503 46 0 0.0 0.0 0.02 0.08 0.08 86 1014.2
20260505221003 45 0 0.0 0.0 0.02 0.08 0.08 86 1014.3
20260505220503 45 0 0.0 0.0 0.02 0.08 0.08 86 1014.4
20260505220005 45 0 0.0 0.0 0.02 0.07 0.07 87 1014.4
20260505215503 45 0 0.0 0.0 0.02 0.07 0.07 86 1014.5
20260505215003 45 0 0.0 0.0 0.02 0.07 0.07 87 1014.5
20260505214503 45 0 0.0 0.0 0.01 0.06 0.06 87 1014.4
20260505214003 45 0 0.0 0.0 0.01 0.06 0.06 86 1014.5
20260505213503 45 78 0.0 1.0 0.01 0.06 0.06 85 1014.5
20260505213003 45 78 0.0 1.0 0.01 0.06 0.06 84 1014.6
20260505212503 45 0 0.0 0.0 0.01 0.06 0.06 83 1014.5
20260505212003 45 68 0.0 1.0 0.01 0.06 0.06 85 1014.5
20260505211503 45 74 0.0 1.0 0.01 0.06 0.06 84 1014.6
20260505211003 45 103 0.0 1.0 0.01 0.06 0.06 83 1014.7
20260505210503 45 103 0.0 1.0 0.01 0.06 0.06 84 1014.7
20260505210003 45 0 0.0 0.0 0.00 0.05 0.05 83 1014.8
20260505205504 45 0 0.0 0.0 0.00 0.05 0.05 83 1014.9
20260505205003 46 0 0.0 0.0 0.00 0.05 0.05 85 1014.9
20260505204503 46 0 0.0 0.0 0.00 0.05 0.05 85 1014.9
20260505204005 45 176 0.0 1.0 0.00 0.05 0.05 84 1014.9
20260505203503 45 176 0.0 1.0 0.00 0.05 0.05 84 1015.0
20260505203003 45 259 0.0 1.0 0.00 0.05 0.05 84 1014.9
20260505202503 45 281 0.0 1.0 0.00 0.05 0.05 83 1014.8
20260505202003 45 3 0.0 2.0 0.00 0.05 0.05 83 1014.6
20260505201503 45 5 0.0 2.0 0.00 0.05 0.05 82 1014.6
20260505201003 46 47 0.0 2.0 0.00 0.05 0.05 83 1014.6
20260505200505 46 94 0.0 2.0 0.00 0.05 0.05 83 1014.5
20260505200003 46 73 0.0 2.0 0.00 0.05 0.05 83 1014.6
20260505195503 46 59 0.0 2.0 0.00 0.05 0.05 82 1014.7
20260505195003 46 59 0.0 1.0 0.00 0.05 0.05 83 1014.8
20260505194503 45 0 0.0 0.0 0.00 0.05 0.05 85 1014.9
20260505194003 45 0 0.0 0.0 0.01 0.05 0.05 85 1014.9
20260505193505 45 0 0.0 0.0 0.01 0.05 0.05 84 1015.0
20260505193005 45 0 0.0 0.0 0.01 0.05 0.05 84 1015.1
20260505192503 45 59 0.0 3.0 0.01 0.05 0.05 83 1015.1
20260505192003 45 60 0.0 3.0 0.01 0.05 0.05 82 1015.2
20260505191503 45 61 0.0 2.0 0.01 0.05 0.05 81 1015.2
20260505191003 46 0 0.0 0.0 0.01 0.05 0.05 80 1015.1
20260505190503 45 0 0.0 0.0 0.01 0.05 0.05 83 1015.1
20260505190003 45 16 0.0 2.0 0.02 0.05 0.05 82 1015.1
20260505185503 45 14 0.0 2.0 0.02 0.05 0.05 84 1015.2
20260505185003 45 329 0.0 1.0 0.02 0.05 0.05 83 1015.2
20260505184503 46 0 0.0 0.0 0.02 0.05 0.05 84 1015.3
20260505184003 46 0 0.0 0.0 0.01 0.04 0.04 86 1015.3
20260505183503 46 0 0.0 0.0 0.01 0.04 0.04 85 1015.4
20260505183003 45 0 0.0 0.0 0.01 0.04 0.04 84 1015.5
20260505182503 45 0 0.0 0.0 0.01 0.04 0.04 84 1015.6
20260505182003 45 329 0.0 1.0 0.01 0.04 0.04 83 1015.5
20260505181503 45 329 0.0 1.0 0.01 0.04 0.04 81 1015.6
20260505181003 46 329 0.0 2.0 0.01 0.04 0.04 82 1015.7
20260505180503 46 329 0.0 2.0 0.01 0.04 0.04 82 1015.7
20260505180003 46 332 1.0 3.0 0.00 0.03 0.03 82 1015.7
20260505175503 46 332 1.0 3.0 0.00 0.03 0.03 80 1015.7
20260505175003 46 0 0.0 0.0 0.00 0.03 0.03 80 1015.9
20260505174503 46 0 0.0 0.0 0.00 0.03 0.03 81 1015.9
20260505174003 46 0 0.0 0.0 0.00 0.03 0.03 80 1015.8
20260505173503 46 0 0.0 0.0 0.00 0.03 0.03 81 1015.7
20260505173003 46 0 0.0 0.0 0.00 0.03 0.03 80 1015.8
20260505172503 46 0 0.0 0.0 0.00 0.03 0.03 81 1015.9
20260505172003 46 126 0.0 1.0 0.00 0.03 0.03 83 1016.0
20260505171503 45 109 0.0 2.0 0.00 0.03 0.03 82 1016.0
20260505171003 45 108 0.0 2.0 0.00 0.03 0.03 80 1016.0
20260505170503 45 0 0.0 0.0 0.00 0.03 0.03 82 1016.1
20260505170003 45 0 0.0 0.0 0.00 0.03 0.03 81 1016.2
20260505165503 45 0 0.0 0.0 0.00 0.03 0.03 81 1016.2
20260505165003 45 0 0.0 0.0 0.00 0.03 0.03 82 1016.2
20260505164503 45 0 0.0 0.0 0.00 0.03 0.03 81 1016.3
20260505164003 45 0 0.0 0.0 0.00 0.03 0.03 81 1016.2
20260505163503 45 0 0.0 0.0 0.00 0.03 0.03 81 1016.0
20260505163003 45 0 0.0 0.0 0.00 0.03 0.03 83 1016.0
20260505162505 45 0 0.0 0.0 0.00 0.03 0.03 83 1015.9
20260505162003 44 0 0.0 0.0 0.00 0.03 0.03 84 1015.9
20260505161503 44 0 0.0 0.0 0.00 0.03 0.03 85 1015.8
20260505161003 44 105 0.0 3.0 0.00 0.03 0.03 85 1015.7
20260505160503 44 105 0.0 3.0 0.00 0.03 0.03 86 1015.6
20260505153005 44 13 0.0 1.0 0.00 0.03 0.03 87 1015.6
20260505152504 44 0 0.0 0.0 0.00 0.03 0.03 87 1015.6
20260505152003 43 34 0.0 3.0 0.00 0.03 0.03 87 1015.6
20260505151503 43 25 0.0 3.0 0.00 0.03 0.03 87 1015.4
20260505151003 43 14 0.0 2.0 0.01 0.03 0.03 87 1015.3
20260505150505 43 12 0.0 2.0 0.01 0.03 0.03 87 1015.4
20260505140503 43 6 2.0 5.0 0.00 0.02 0.02 88 1015.2
20260505125003 43 26 1.0 5.0 0.01 0.02 0.02 82 1014.0
20260505124503 43 11 2.0 7.0 0.01 0.02 0.02 85 1013.8
20260505124003 43 8 2.0 7.0 0.01 0.02 0.02 86 1013.7
20260505123503 43 356 2.0 5.0 0.01 0.02 0.02 88 1013.7
20260505123003 43 344 1.0 5.0 0.01 0.02 0.02 89 1013.7
20260505122503 43 344 1.0 3.0 0.01 0.02 0.02 89 1013.6
20260505122004 43 334 1.0 3.0 0.01 0.02 0.02 89 1013.5
20260505121503 43 337 1.0 3.0 0.01 0.02 0.02 88 1013.4
20260505121003 43 360 0.0 2.0 0.01 0.02 0.02 88 1013.3
20260505120503 43 360 0.0 2.0 0.01 0.02 0.02 88 1013.3
20260505120004 43 0 0.0 0.0 0.00 0.01 0.01 87 1013.1
20260505115503 43 0 0.0 0.0 0.00 0.01 0.01 87 1013.0
20260505115003 43 0 0.0 0.0 0.00 0.01 0.01 86 1012.8
20260505114503 43 26 0.0 3.0 0.00 0.01 0.01 86 1012.8
20260505114003 43 27 1.0 3.0 0.00 0.01 0.01 85 1012.7
20260505113503 44 27 1.0 3.0 0.00 0.01 0.01 85 1012.6
20260505113003 44 26 1.0 5.0 0.00 0.01 0.01 84 1012.5
20260505112503 44 13 1.0 5.0 0.00 0.01 0.01 84 1012.4
20260505112003 44 8 1.0 5.0 0.00 0.01 0.01 84 1012.3
20260505111503 44 14 1.0 5.0 0.00 0.01 0.01 84 1012.0
20260505111003 44 15 1.0 5.0 0.00 0.01 0.01 85 1012.0
20260505110504 44 16 1.0 4.0 0.00 0.01 0.01 86 1011.8
20260505102003 43 31 1.0 4.0 0.01 0.01 0.01 88 1011.5
20260505101503 43 23 2.0 4.0 0.01 0.01 0.01 88 1011.4
20260505101003 43 28 2.0 4.0 0.01 0.01 0.01 88 1011.4
20260505100503 43 27 2.0 4.0 0.01 0.01 0.01 88 1011.4